Temp
8 7 8 8 9 9 9 9 8 8 8 8 7 7 7 7 7 7 6 5 4 3 2 2 1 1 1 1 1 2 2 2 2 2 2 2 2 2 1 1 1 0 0 -0 -0 0 0 1 1 0 -1 -1 -2 -1 -1 -1 -1 -1 -1 -1 -1 -0 -0
8 7 7 7 8 8 8 8 8 8 8 7 7 7 6 6 6 6 5 4 3 3 2 1 1 1 1 1 1 1 2 2 2 2 2 2 2 1 1 1 1 0 -0 -0 -1 -1 -0 0 0 -0 -1 -2 -2 -2 -2 -2 -2 -2 -2 -1 -1 -1 -1
9 8 7 7 7 7 7 7 7 7 7 7 7 6 6 6 6 5 4 4 3 2 1 1 0 0 0 0 1 1 1 2 2 2 2 2 1 1 1 1 0 0 -0 -1 -1 -1 -1 -0 -0 -0 -1 -2 -3 -3 -2 -2 -2 -2 -2 -2 -2 -2 -1
9 9 8 7 6 6 7 7 7 7 6 6 6 6 6 6 5 5 4 4 2 1 1 0 0 0 0 0 1 1 1 1 1 2 2 2 1 1 0 0 -0 -0 -0 -1 -1 -1 -1 -1 -1 -1 -2 -2 -3 -3 -3 -3 -3 -3 -3 -2 -2 -2 -2
9 9 8 7 6 6 6 6 6 6 6 6 6 5 5 5 5 4 4 3 2 1 0 -0 -0 0 0 0 0 1 1 1 1 1 1 1 1 0 -0 -0 -0 -1 -1 -1 -1 -1 -2 -2 -2 -1 -2 -2 -3 -4 -4 -4 -4 -4 -3 -3 -3 -3 -3
9 9 8 7 7 6 6 6 6 6 5 5 5 5 5 4 4 4 4 3 2 1 0 -0 -0 -0 -0 0 0 0 0 1 1 1 0 0 -0 -0 -1 -1 -1 -1 -1 -1 -2 -2 -2 -2 -2 -2 -2 -2 -3 -4 -4 -5 -5 -5 -4 -4 -4 -4 -3
9 8 8 7 6 6 6 5 5 5 5 5 4 4 4 4 4 4 3 2 1 0 -0 -1 -1 -1 -0 -0 -0 -0 0 0 0 0 0 0 -0 -1 -1 -1 -1 -1 -2 -2 -2 -3 -3 -3 -3 -2 -3 -2 -3 -4 -5 -5 -5 -5 -5 -4 -4 -4 -4
9 8 8 7 6 6 5 4 4 4 4 4 3 3 3 3 3 2 2 1 -0 -1 -1 -1 -1 -1 -1 -1 -1 -0 -1 -1 -1 -1 -0 -0 -0 -1 -1 -1 -2 -2 -2 -3 -3 -3 -3 -3 -3 -3 -3 -3 -3 -4 -5 -6 -5 -5 -5 -4 -4 -4 -4
8 8 8 7 6 5 5 4 3 3 3 3 2 2 2 2 1 1 0 -0 -1 -2 -2 -2 -2 -2 -1 -1 -1 -1 -1 -1 -1 -1 -1 -1 -1 -1 -1 -1 -2 -2 -3 -3 -3 -3 -3 -4 -4 -3 -3 -3 -3 -3 -4 -5 -5 -6 -5 -5 -5 -4 -4
7 7 7 7 6 5 4 3 3 2 2 2 2 1 1 1 1 0 -0 -1 -2 -2 -2 -2 -2 -2 -2 -1 -1 -1 -1 -1 -1 -2 -2 -1 -2 -2 -2 -2 -2 -2 -3 -3 -3 -3 -3 -4 -4 -3 -3 -3 -3 -3 -4 -4 -5 -6 -6 -5 -5 -5 -5
7 7 6 6 6 5 4 3 2 2 2 1 1 1 1 1 0 0 -0 -1 -2 -2 -3 -3 -2 -2 -2 -2 -2 -1 -1 -1 -2 -2 -2 -2 -2 -2 -2 -2 -2 -2 -3 -3 -3 -3 -4 -4 -3 -3 -3 -3 -3 -4 -4 -4 -5 -5 -5 -5 -5 -5 -5
7 6 6 6 5 5 4 3 2 1 1 1 1 0 0 0 -0 -0 -0 -1 -1 -1 -2 -3 -3 -2 -2 -2 -2 -2 -2 -2 -2 -2 -2 -2 -2 -3 -3 -3 -3 -3 -3 -3 -4 -4 -3 -3 -3 -3 -3 -4 -4 -4 -4 -5 -5 -5 -5 -5 -5 -5 -5
6 6 6 6 5 5 4 2 1 1 0 0 -0 -0 -1 -1 -1 -1 -0 -1 -1 -1 -2 -3 -3 -3 -3 -2 -2 -2 -2 -2 -2 -3 -3 -3 -3 -3 -3 -3 -3 -3 -4 -4 -4 -4 -4 -3 -4 -4 -4 -4 -4 -4 -4 -4 -5 -5 -5 -5 -6 -6 -6
6 6 5 5 5 4 3 2 1 0 -0 -0 -1 -1 -1 -1 -1 -1 -1 -1 -1 -2 -2 -3 -3 -3 -3 -3 -3 -3 -3 -3 -3 -3 -3 -3 -3 -4 -4 -4 -4 -4 -4 -5 -5 -5 -5 -5 -5 -4 -4 -4 -5 -5 -4 -4 -5 -5 -5 -6 -7 -7 -7
5 5 5 5 4 4 3 1 0 -1 -1 -1 -2 -2 -2 -2 -2 -1 -1 -2 -2 -2 -3 -3 -3 -3 -3 -3 -3 -3 -3 -4 -4 -4 -4 -4 -4 -4 -4 -4 -4 -4 -5 -5 -5 -5 -5 -5 -5 -5 -5 -5 -6 -6 -6 -6 -6 -6 -6 -6 -7 -8 -8
4 4 4 4 4 3 2 1 -1 -1 -2 -2 -2 -2 -3 -3 -2 -2 -2 -2 -2 -3 -3 -4 -4 -4 -4 -4 -4 -4 -4 -4 -4 -4 -5 -5 -5 -5 -5 -5 -5 -5 -5 -5 -5 -5 -5 -5 -5 -6 -6 -6 -6 -6 -7 -7 -7 -7 -8 -8 -8 -8 -8
3 3 3 3 3 2 1 -0 -1 -2 -2 -2 -3 -3 -3 -3 -3 -3 -3 -3 -3 -3 -4 -4 -4 -4 -4 -4 -4 -4 -4 -4 -4 -5 -5 -6 -6 -5 -5 -5 -5 -5 -6 -6 -6 -6 -6 -6 -6 -6 -6 -7 -7 -7 -7 -7 -7 -8 -8 -8 -9 -9 -9
2 2 2 2 1 1 0 -1 -1 -2 -2 -3 -3 -4 -4 -4 -4 -3 -3 -3 -3 -4 -4 -4 -5 -5 -5 -5 -5 -5 -5 -5 -5 -5 -6 -6 -6 -6 -6 -6 -6 -6 -6 -6 -6 -6 -6 -6 -6 -6 -7 -7 -7 -7 -7 -7 -7 -8 -8 -9 -9 -9 -9
1 1 1 1 0 -0 -1 -1 -2 -2 -3 -3 -4 -4 -4 -4 -4 -4 -4 -4 -4 -4 -4 -5 -5 -5 -5 -5 -5 -6 -6 -6 -6 -6 -7 -7 -7 -7 -7 -7 -7 -6 -6 -6 -6 -6 -6 -6 -7 -7 -7 -7 -7 -8 -8 -8 -8 -9 -9 -9 -9 -9 -10
0 0 -0 -0 -1 -1 -2 -3 -3 -3 -4 -4 -4 -5 -5 -5 -5 -5 -4 -5 -5 -5 -5 -5 -5 -5 -6 -6 -6 -6 -6 -6 -6 -7 -8 -8 -8 -7 -7 -7 -7 -7 -7 -6 -6 -7 -7 -7 -7 -7 -7 -8 -8 -8 -8 -9 -9 -10 -10 -10 -10 -10 -10
-2 -2 -2 -2 -2 -3 -3 -4 -4 -4 -5 -5 -5 -5 -5 -5 -5 -5 -5 -6 -6 -6 -6 -6 -6 -6 -6 -6 -7 -7 -7 -7 -7 -7 -8 -8 -8 -8 -8 -8 -7 -7 -7 -7 -7 -7 -8 -8 -8 -8 -8 -8 -8 -9 -9 -9 -10 -10 -10 -11 -11 -10 -10
-3 -3 -4 -4 -4 -4 -4 -4 -5 -5 -5 -5 -6 -6 -6 -6 -6 -6 -6 -6 -7 -7 -7 -7 -7 -7 -7 -7 -7 -7 -8 -8 -8 -8 -9 -9 -9 -9 -8 -8 -8 -8 -8 -8 -8 -8 -8 -9 -9 -9 -9 -9 -9 -9 -10 -10 -10 -10 -11 -11 -11 -11 -11
-5 -5 -5 -5 -5 -5 -5 -5 -5 -6 -6 -6 -6 -6 -7 -7 -7 -7 -7 -7 -7 -8 -8 -8 -8 -8 -8 -8 -8 -8 -8 -9 -9 -9 -9 -10 -9 -9 -9 -9 -9 -9 -9 -9 -9 -9 -9 -9 -9 -9 -9 -10 -10 -10 -10 -10 -10 -11 -11 -11 -11 -11 -11
-6 -7 -7 -6 -6 -6 -6 -6 -6 -6 -7 -7 -7 -7 -7 -8 -8 -8 -8 -8 -8 -8 -9 -9 -9 -9 -9 -9 -8 -9 -9 -10 -10 -10 -10 -10 -10 -9 -9 -9 -9 -9 -10 -10 -10 -10 -10 -10 -10 -10 -10 -10 -10 -10 -11 -11 -11 -11 -12 -12 -12 -12 -12
-8 -8 -8 -8 -8 -7 -8 -7 -7 -7 -8 -8 -8 -8 -8 -8 -8 -8 -9 -9 -9 -9 -10 -10 -10 -10 -10 -10 -10 -10 -10 -11 -11 -11 -11 -10 -10 -10 -9 -10 -10 -10 -10 -11 -11 -11 -11 -11 -11 -11 -11 -11 -11 -11 -11 -11 -12 -12 -12 -12 -12 -12 -12
-8 -9 -9 -9 -9 -9 -9 -9 -9 -8 -9 -9 -9 -9 -9 -9 -9 -9 -9 -9 -10 -10 -11 -11 -11 -11 -11 -11 -11 -11 -11 -11 -11 -11 -11 -11 -11 -10 -10 -10 -11 -11 -11 -11 -11 -12 -11 -11 -11 -11 -12 -12 -12 -12 -12 -12 -12 -12 -12 -12 -13 -13 -13
-10 -10 -10 -10 -10 -10 -10 -10 -10 -10 -10 -10 -10 -10 -10 -10 -10 -10 -10 -10 -10 -11 -12 -12 -12 -12 -12 -12 -12 -12 -12 -12 -12 -12 -12 -11 -11 -11 -11 -11 -11 -12 -12 -12 -12 -12 -12 -12 -12 -12 -12 -12 -12 -13 -13 -13 -13 -13 -13 -13 -13 -13 -13
-11 -11 -12 -11 -11 -11 -11 -11 -11 -12 -11 -11 -11 -11 -11 -11 -11 -11 -11 -11 -11 -12 -12 -13 -13 -13 -13 -13 -13 -13 -13 -13 -13 -13 -12 -12 -12 -12 -12 -12 -12 -13 -13 -13 -13 -13 -13 -13 -13 -13 -13 -13 -13 -13 -13 -13 -13 -13 -13 -13 -13 -13 -13
-12 -12 -12 -12 -12 -12 -13 -12 -12 -12 -12 -12 -12 -12 -12 -12 -12 -12 -12 -12 -12 -13 -13 -13 -13 -13 -13 -13 -13 -14 -14 -13 -13 -13 -13 -13 -13 -12 -12 -12 -13 -13 -13 -13 -13 -13 -13 -13 -13 -13 -13 -13 -13 -13 -13 -13 -13 -13 -13 -13 -13 -13 -13
-13 -13 -13 -13 -13 -13 -13 -14 -13 -13 -13 -13 -13 -13 -13 -13 -13 -13 -13 -13 -13 -14 -14 -14 -14 -14 -14 -14 -14 -14 -14 -14 -14 -13 -13 -13 -13 -13 -13 -13 -13 -13 -13 -13 -13 -14 -14 -14 -14 -14 -14 -14 -14 -13 -13 -13 -13 -13 -13 -13 -13 -13 -13
-14 -14 -14 -14 -14 -13 -13 -14 -14 -14 -14 -14 -14 -14 -14 -14 -14 -13 -13 -13 -14 -14 -15 -15 -15 -14 -14 -14 -14 -14 -14 -14 -14 -13 -13 -13 -13 -13 -13 -13 -13 -13 -14 -14 -14 -14 -14 -14 -14 -14 -14 -14 -14 -14 -13 -13 -13 -14 -13 -13 -13 -13 -13
-14 -14 -14 -14 -14 -14 -14 -14 -14 -14 -14 -14 -14 -14 -14 -14 -14 -14 -14 -14 -14 -15 -15 -15 -15 -15 -15 -15 -14 -14 -14 -14 -14 -14 -13 -13 -13 -13 -13 -13 -14 -14 -14 -14 -14 -15 -15 -15 -15 -15 -15 -14 -14 -14 -14 -14 -14 -14 -14 -14 -14 -14 -14
-14 -14 -14 -14 -14 -14 -14 -14 -14 -14 -14 -14 -14 -14 -14 -14 -14 -14 -14 -14 -15 -16 -16 -16 -16 -15 -15 -15 -15 -15 -15 -15 -14 -14 -14 -14 -14 -14 -14 -14 -14 -14 -15 -15 -15 -15 -15 -15 -15 -15 -15 -15 -15 -15 -15 -15 -15 -15 -15 -15 -15 -15 -15
-14 -14 -15 -15 -15 -15 -15 -14 -14 -14 -14 -14 -14 -14 -15 -15 -15 -15 -15 -15 -16 -16 -17 -16 -16 -16 -16 -15 -15 -15 -15 -15 -15 -15 -15 -15 -15 -15 -15 -15 -15 -15 -15 -15 -15 -15 -15 -15 -15 -15 -15 -15 -15 -15 -15 -15 -15 -15 -15 -15 -15 -15 -15
-14 -14 -14 -15 -15 -15 -15 -15 -14 -14 -14 -14 -14 -14 -14 -14 -15 -15 -15 -15 -16 -16 -16 -16 -16 -16 -16 -16 -16 -16 -16 -16 -16 -15 -15 -15 -15 -16 -15 -15 -15 -15 -15 -15 -16 -16 -16 -16 -16 -16 -16 -16 -16 -16 -15 -15 -15 -15 -15 -15 -15 -15 -15
-15 -15 -15 -15 -15 -15 -15 -15 -14 -14 -14 -14 -14 -14 -14 -14 -14 -15 -15 -15 -16 -16 -16 -16 -16 -16 -16 -16 -16 -16 -16 -16 -16 -16 -16 -16 -16 -16 -16 -16 -16 -16 -16 -16 -16 -16 -16 -16 -16 -16 -16 -16 -16 -16 -15 -15 -15 -15 -15 -15 -15 -15 -15
Height
1461 1461 1462 1463 1463 1463 1463 1463 1464 1464 1464 1464 1464 1464 1463 1463 1463 1462 1462 1462 1462 1462 1462 1462 1462 1463 1464 1464 1465 1465 1466 1466 1466 1467 1466 1467 1467 1468 1469 1470 1470 1470 1469 1469 1470 1472 1474 1476 1477 1477 1479 1481 1483 1485 1487 1489 1491 1493 1495 1496 1498 1500 1502
1457 1458 1458 1459 1460 1460 1460 1460 1460 1460 1461 1461 1461 1461 1460 1460 1459 1459 1458 1458 1458 1458 1458 1458 1459 1459 1460 1461 1461 1461 1462 1462 1463 1463 1463 1463 1463 1464 1465 1466 1467 1467 1466 1465 1466 1468 1470 1472 1473 1474 1475 1477 1479 1481 1483 1486 1488 1490 1492 1494 1495 1497 1499
1454 1455 1455 1455 1456 1456 1456 1456 1457 1457 1457 1457 1457 1457 1457 1456 1455 1455 1455 1455 1455 1455 1455 1455 1455 1456 1457 1457 1457 1457 1458 1458 1459 1459 1459 1459 1460 1460 1461 1462 1463 1463 1462 1462 1462 1464 1466 1468 1469 1470 1471 1473 1476 1478 1480 1482 1485 1487 1489 1491 1493 1494 1496
1452 1452 1451 1452 1452 1453 1453 1453 1453 1454 1454 1454 1453 1453 1453 1453 1452 1452 1451 1451 1451 1451 1451 1451 1451 1452 1453 1453 1453 1454 1454 1455 1455 1455 1455 1456 1456 1457 1457 1458 1459 1459 1459 1459 1459 1460 1462 1464 1465 1466 1467 1469 1471 1474 1476 1479 1481 1484 1486 1488 1490 1492 1493
1450 1449 1449 1449 1449 1449 1450 1450 1450 1450 1450 1450 1450 1449 1449 1449 1448 1448 1448 1447 1447 1447 1447 1447 1448 1449 1449 1449 1449 1450 1451 1451 1451 1452 1452 1452 1453 1453 1454 1454 1455 1455 1455 1455 1456 1457 1458 1460 1461 1462 1464 1465 1467 1470 1472 1475 1477 1480 1482 1485 1487 1489 1491
1447 1447 1446 1446 1446 1446 1446 1446 1446 1446 1446 1446 1446 1446 1446 1445 1445 1444 1444 1443 1443 1443 1443 1444 1444 1445 1445 1446 1446 1446 1447 1447 1447 1448 1448 1448 1449 1450 1450 1451 1451 1451 1452 1452 1453 1453 1454 1456 1457 1459 1460 1461 1463 1466 1468 1470 1473 1476 1479 1482 1484 1486 1489
1445 1444 1444 1444 1444 1443 1443 1443 1443 1443 1443 1442 1442 1442 1442 1442 1441 1440 1440 1439 1439 1439 1440 1440 1441 1441 1442 1442 1442 1443 1444 1444 1444 1444 1444 1444 1445 1446 1446 1447 1447 1448 1449 1449 1450 1450 1451 1453 1454 1455 1457 1458 1460 1462 1465 1467 1469 1471 1475 1478 1480 1483 1485
1442 1442 1441 1441 1441 1440 1440 1440 1440 1440 1440 1440 1439 1439 1439 1438 1437 1436 1436 1435 1435 1436 1436 1437 1437 1438 1438 1439 1439 1439 1440 1440 1440 1440 1440 1441 1441 1442 1442 1443 1444 1445 1446 1446 1447 1448 1448 1450 1451 1452 1453 1455 1456 1458 1460 1462 1465 1468 1471 1474 1476 1479 1481
1439 1439 1438 1438 1437 1437 1436 1436 1436 1436 1436 1436 1436 1435 1435 1434 1433 1433 1432 1432 1432 1432 1433 1433 1434 1435 1435 1435 1435 1436 1436 1437 1437 1437 1437 1437 1438 1438 1438 1439 1440 1441 1442 1443 1444 1444 1445 1446 1447 1447 1449 1450 1451 1453 1456 1459 1462 1465 1468 1471 1473 1475 1477
1436 1436 1435 1434 1434 1433 1433 1433 1433 1433 1433 1432 1432 1432 1431 1430 1430 1429 1429 1429 1429 1429 1429 1430 1431 1431 1432 1432 1432 1432 1433 1433 1434 1434 1434 1435 1435 1435 1435 1435 1436 1437 1438 1439 1440 1440 1441 1442 1442 1443 1445 1447 1449 1451 1454 1456 1459 1461 1464 1467 1469 1471 1473
1433 1433 1432 1431 1430 1430 1429 1429 1429 1429 1429 1429 1428 1428 1427 1426 1426 1425 1425 1425 1425 1426 1426 1426 1427 1427 1428 1428 1428 1428 1429 1429 1430 1430 1431 1431 1432 1432 1432 1432 1433 1433 1434 1435 1436 1437 1438 1439 1439 1441 1443 1445 1447 1449 1451 1453 1456 1458 1460 1462 1463 1465 1467
1430 1430 1429 1428 1427 1426 1425 1426 1426 1426 1426 1425 1425 1424 1423 1423 1422 1422 1422 1422 1422 1422 1422 1422 1423 1423 1424 1424 1424 1425 1425 1426 1426 1427 1427 1428 1428 1429 1429 1429 1430 1430 1431 1432 1433 1434 1435 1436 1437 1439 1440 1442 1444 1446 1449 1451 1453 1454 1456 1458 1460 1461 1463
1427 1426 1426 1425 1424 1423 1422 1422 1422 1422 1422 1422 1421 1421 1420 1420 1419 1419 1419 1419 1418 1419 1418 1418 1419 1420 1420 1421 1421 1421 1422 1422 1423 1423 1423 1424 1424 1425 1426 1426 1426 1427 1428 1429 1430 1431 1432 1434 1436 1437 1438 1440 1442 1444 1446 1447 1449 1451 1453 1454 1456 1457 1460
1423 1423 1423 1422 1421 1420 1419 1419 1419 1419 1419 1419 1418 1417 1416 1416 1416 1415 1415 1415 1415 1415 1415 1415 1415 1416 1416 1417 1417 1418 1418 1418 1419 1419 1420 1420 1421 1422 1422 1423 1423 1424 1425 1426 1427 1428 1430 1432 1434 1435 1437 1439 1440 1441 1443 1445 1446 1447 1449 1451 1452 1454 1457
1420 1419 1419 1419 1418 1417 1416 1416 1416 1416 1416 1415 1415 1414 1413 1412 1412 1411 1411 1411 1411 1411 1411 1412 1412 1412 1413 1413 1414 1414 1415 1415 1415 1416 1416 1417 1418 1418 1419 1420 1420 1421 1423 1424 1425 1426 1428 1430 1432 1433 1435 1436 1437 1439 1440 1442 1443 1445 1446 1447 1449 1452 1454
1416 1416 1416 1415 1414 1413 1412 1412 1413 1413 1412 1412 1411 1410 1409 1408 1408 1408 1408 1408 1408 1408 1408 1408 1409 1409 1409 1410 1410 1411 1411 1411 1412 1412 1413 1414 1415 1416 1416 1417 1418 1419 1420 1422 1423 1424 1426 1428 1429 1430 1432 1433 1434 1435 1437 1438 1439 1441 1442 1444 1446 1448 1451
1412 1412 1412 1411 1410 1410 1409 1409 1409 1409 1408 1408 1407 1406 1405 1405 1404 1404 1404 1404 1404 1404 1404 1405 1405 1405 1405 1406 1407 1407 1407 1408 1408 1409 1410 1411 1412 1413 1414 1415 1416 1417 1418 1420 1421 1422 1424 1425 1427 1428 1429 1430 1431 1431 1433 1434 1435 1437 1438 1441 1443 1445 1447
1408 1408 1407 1407 1406 1406 1405 1405 1405 1405 1404 1404 1403 1402 1402 1401 1400 1400 1400 1400 1400 1400 1401 1401 1401 1401 1402 1402 1403 1403 1404 1404 1405 1405 1406 1408 1410 1411 1412 1413 1414 1415 1416 1418 1419 1420 1421 1422 1424 1424 1425 1426 1427 1428 1429 1431 1432 1434 1436 1438 1440 1443 1445
1404 1404 1403 1402 1402 1402 1401 1401 1401 1401 1401 1400 1400 1399 1398 1397 1397 1396 1396 1396 1396 1396 1397 1397 1397 1398 1398 1398 1399 1399 1400 1401 1401 1402 1404 1405 1407 1409 1410 1411 1413 1414 1415 1416 1417 1418 1419 1419 1420 1422 1423 1424 1425 1426 1427 1429 1431 1433 1435 1437 1439 1441 1443
1400 1400 1399 1398 1398 1398 1398 1397 1397 1397 1397 1396 1396 1396 1395 1394 1393 1393 1393 1393 1392 1393 1393 1393 1393 1394 1394 1394 1395 1396 1396 1397 1398 1399 1401 1403 1404 1406 1408 1409 1410 1411 1412 1413 1414 1415 1416 1417 1418 1419 1420 1421 1422 1424 1425 1427 1429 1431 1433 1435 1437 1439 1441
1397 1396 1395 1395 1394 1393 1394 1394 1393 1393 1393 1393 1393 1392 1391 1390 1390 1390 1389 1389 1389 1389 1389 1389 1389 1390 1390 1390 1391 1392 1392 1393 1395 1396 1398 1400 1402 1404 1405 1406 1407 1408 1409 1410 1411 1412 1413 1414 1415 1417 1418 1419 1420 1422 1423 1425 1427 1428 1431 1433 1435 1437 1439
1393 1393 1392 1392 1391 1390 1390 1390 1390 1390 1389 1389 1389 1388 1388 1387 1386 1386 1386 1385 1385 1385 1385 1386 1386 1386 1387 1387 1387 1388 1388 1389 1391 1392 1394 1397 1398 1400 1402 1403 1404 1405 1406 1407 1408 1409 1410 1411 1413 1414 1415 1416 1418 1420 1422 1424 1425 1427 1429 1431 1433 1435 1437
1391 1390 1389 1389 1389 1388 1387 1387 1387 1387 1386 1386 1385 1384 1384 1383 1382 1382 1382 1381 1381 1381 1382 1382 1382 1383 1383 1384 1383 1384 1384 1386 1387 1389 1391 1393 1394 1397 1398 1399 1401 1402 1403 1404 1405 1406 1407 1409 1410 1411 1413 1414 1416 1418 1420 1422 1424 1425 1427 1430 1432 1434 1436
1388 1387 1387 1386 1386 1385 1384 1384 1384 1384 1383 1382 1382 1381 1380 1380 1379 1379 1378 1378 1378 1378 1378 1379 1379 1380 1380 1380 1380 1380 1381 1382 1384 1386 1387 1389 1391 1393 1395 1396 1397 1398 1399 1401 1402 1403 1404 1406 1408 1409 1411 1412 1414 1416 1418 1420 1422 1423 1425 1428 1430 1432 1434
1386 1385 1384 1384 1383 1383 1382 1381 1381 1381 1380 1379 1378 1377 1377 1376 1376 1376 1375 1375 1375 1375 1375 1375 1376 1376 1377 1377 1377 1377 1377 1378 1380 1382 1384 1386 1388 1390 1391 1392 1394 1395 1397 1398 1399 1401 1402 1404 1405 1407 1409 1411 1413 1414 1416 1418 1420 1421 1423 1425 1427 1429 1431
1384 1383 1383 1382 1381 1380 1380 1379 1378 1378 1377 1376 1375 1374 1374 1373 1373 1373 1372 1372 1372 1372 1372 1372 1373 1373 1374 1374 1374 1374 1375 1375 1377 1379 1381 1383 1385 1386 1387 1389 1391 1392 1394 1395 1397 1399 1400 1401 1404 1406 1407 1409 1411 1412 1414 1416 1418 1419 1421 1423 1425 1427 1429
1383 1382 1381 1380 1379 1378 1377 1376 1375 1375 1374 1373 1372 1371 1371 1370 1370 1370 1370 1369 1369 1369 1369 1369 1370 1371 1371 1371 1372 1372 1373 1373 1375 1377 1378 1380 1381 1383 1385 1387 1388 1390 1392 1394 1395 1396 1398 1400 1402 1404 1405 1407 1409 1410 1412 1414 1415 1417 1419 1420 1422 1424 1426
1381 1380 1379 1378 1377 1375 1374 1374 1373 1372 1371 1370 1369 1369 1368 1367 1367 1367 1367 1367 1366 1366 1367 1367 1368 1368 1368 1369 1369 1370 1371 1372 1373 1375 1376 1377 1379 1381 1383 1385 1386 1388 1390 1392 1393 1395 1396 1398 1400 1401 1403 1405 1407 1408 1410 1412 1413 1415 1417 1418 1420 1421 1423
1380 1379 1378 1376 1376 1374 1372 1372 1371 1370 1370 1369 1367 1367 1365 1365 1364 1364 1364 1364 1364 1364 1364 1365 1365 1366 1366 1367 1367 1368 1369 1370 1372 1373 1374 1375 1377 1379 1381 1383 1384 1386 1387 1389 1391 1392 1394 1397 1398 1399 1401 1403 1404 1406 1408 1410 1411 1413 1415 1416 1417 1419 1420
1379 1378 1376 1375 1375 1373 1372 1370 1369 1369 1368 1367 1366 1365 1364 1363 1362 1362 1362 1362 1362 1362 1362 1363 1363 1364 1364 1365 1366 1366 1367 1369 1370 1372 1373 1374 1375 1377 1379 1381 1382 1384 1385 1387 1388 1390 1392 1394 1396 1398 1399 1401 1402 1404 1406 1408 1409 1411 1412 1413 1415 1416 1417
1378 1377 1376 1374 1373 1372 1372 1370 1368 1367 1367 1365 1365 1364 1362 1361 1361 1360 1360 1360 1360 1360 1360 1361 1361 1362 1363 1363 1364 1365 1366 1367 1368 1370 1371 1372 1374 1375 1377 1378 1380 1381 1383 1384 1386 1388 1390 1392 1394 1396 1397 1399 1401 1402 1404 1405 1406 1407 1409 1410 1412 1413 1414
1378 1377 1375 1374 1372 1371 1370 1369 1367 1366 1365 1364 1363 1362 1361 1360 1360 1359 1358 1358 1358 1358 1358 1359 1360 1361 1361 1362 1363 1363 1364 1365 1366 1368 1369 1370 1371 1373 1374 1376 1377 1378 1380 1382 1384 1386 1388 1390 1392 1394 1395 1397 1398 1400 1401 1403 1404 1405 1406 1407 1409 1410 1411
1377 1376 1375 1373 1372 1370 1369 1368 1366 1365 1364 1363 1362 1361 1360 1359 1359 1358 1357 1356 1356 1357 1357 1358 1359 1359 1360 1361 1361 1362 1363 1364 1365 1366 1367 1367 1369 1370 1372 1373 1375 1377 1379 1380 1382 1384 1386 1387 1389 1391 1393 1395 1396 1397 1399 1400 1401 1402 1404 1405 1406 1407 1408
1377 1376 1374 1373 1372 1370 1369 1367 1366 1364 1363 1362 1361 1360 1359 1358 1358 1357 1356 1356 1355 1356 1356 1357 1357 1358 1358 1359 1360 1361 1361 1362 1363 1364 1365 1366 1367 1368 1370 1372 1373 1375 1377 1378 1380 1382 1383 1385 1387 1388 1390 1392 1393 1395 1396 1398 1399 1400 1401 1402 1403 1404 1405
1376 1375 1374 1373 1372 1370 1369 1367 1366 1364 1363 1362 1361 1359 1358 1358 1357 1356 1356 1355 1355 1355 1355 1356 1356 1357 1357 1358 1359 1359 1360 1361 1362 1363 1363 1364 1366 1367 1368 1370 1372 1373 1375 1377 1378 1380 1382 1383 1385 1386 1388 1390 1391 1392 1394 1395 1396 1397 1398 1399 1400 1401 1402
1377 1375 1374 1373 1372 1370 1369 1367 1366 1365 1363 1362 1361 1359 1358 1358 1357 1356 1355 1355 1354 1354 1354 1355 1355 1356 1356 1357 1358 1358 1359 1360 1360 1361 1362 1363 1364 1365 1367 1368 1370 1372 1373 1375 1377 1379 1380 1382 1383 1384 1386 1387 1388 1390 1391 1392 1393 1394 1395 1396 1397 1398 1399
Wind_Speed
32 34 35 34 33 32 31 31 30 29 27 27 27 26 26 26 25 25 25 25 25 25 25 26 26 26 26 27 29 30 30 31 32 32 33 32 31 30 29 29 31 33 34 33 30 28 27 27 29 31 33 35 37 36 36 36 36 36 37 38 38 37 36
29 31 34 34 33 32 31 30 30 29 28 27 27 27 26 26 26 26 26 25 26 25 25 24 24 25 25 27 29 30 29 29 30 31 32 33 32 32 31 30 30 31 35 35 33 31 29 28 29 31 33 35 37 38 37 38 37 37 37 38 38 38 38
27 29 31 32 32 31 30 29 29 28 28 28 27 27 26 26 27 27 26 26 26 25 24 24 24 24 24 26 28 29 29 29 30 30 31 32 32 32 32 31 31 31 33 35 35 33 31 30 31 31 32 35 37 39 39 39 39 38 38 38 38 38 37
25 26 27 29 30 31 30 29 29 28 28 28 28 28 27 27 27 27 26 26 26 25 24 23 23 23 23 25 27 28 28 29 29 30 31 31 31 31 31 31 31 31 32 34 35 34 32 32 32 32 32 35 38 40 40 40 40 40 39 38 38 37 37
23 24 25 26 27 29 29 29 29 28 28 28 28 28 28 27 27 27 26 26 26 25 24 23 24 23 24 26 27 27 27 27 28 29 30 31 30 29 29 29 30 31 32 34 35 35 33 33 33 32 32 34 37 40 41 41 41 40 40 40 39 38 37
21 22 23 24 25 27 29 29 29 29 28 28 28 28 27 27 27 27 27 26 25 24 23 24 24 24 25 26 26 27 26 26 27 28 29 30 29 27 27 28 29 31 32 33 34 35 34 33 33 32 32 33 35 38 40 41 41 41 41 41 41 39 38
19 21 22 23 24 27 29 29 29 29 28 28 28 27 26 26 27 26 27 26 24 23 23 23 24 25 25 26 26 26 26 26 27 28 28 29 28 27 27 27 28 29 30 32 33 34 34 33 32 33 32 32 33 37 39 40 41 42 42 42 42 41 40
19 20 21 22 24 26 28 28 28 28 27 27 26 26 26 26 26 26 27 26 24 23 23 23 24 25 25 25 25 26 26 27 27 27 27 27 27 27 27 27 27 28 29 31 32 33 34 33 33 33 32 32 33 37 39 39 40 41 42 42 42 42 42
20 20 21 22 24 26 27 27 27 26 26 26 25 25 25 25 26 26 26 26 24 24 25 24 24 24 24 25 24 25 25 26 26 26 26 26 26 27 27 27 27 27 29 31 32 33 34 33 33 34 33 34 34 35 36 37 38 40 41 41 42 43 44
20 21 22 23 24 25 26 26 26 25 25 25 25 25 26 26 26 26 27 26 25 25 25 25 24 24 24 24 24 24 25 26 26 26 26 25 25 26 27 27 27 27 28 30 32 33 34 34 35 35 34 32 31 31 32 34 37 39 40 42 43 44 45
21 21 22 23 24 25 25 25 24 24 24 25 25 26 26 27 27 27 27 27 26 25 25 24 24 24 24 24 24 24 25 25 25 26 26 26 25 26 26 26 26 26 27 28 30 32 33 33 34 32 31 29 28 28 30 32 35 38 40 42 44 45 45
22 22 22 23 24 25 25 24 24 23 24 25 25 26 27 27 28 27 27 27 26 25 25 24 24 24 24 24 24 25 25 25 25 26 26 26 26 26 26 27 27 26 26 26 27 29 30 31 30 29 28 27 25 25 27 30 34 38 39 41 43 44 44
23 23 23 23 24 24 24 24 24 23 24 24 25 26 27 27 27 27 26 27 27 25 25 25 25 25 25 24 24 24 24 24 25 26 26 26 26 26 26 26 27 26 25 23 22 24 25 26 26 25 23 21 21 23 26 31 34 36 38 40 42 43 42
24 24 23 23 24 24 24 24 23 23 23 24 25 26 26 26 26 26 26 27 27 26 26 26 26 26 26 25 24 24 23 23 24 24 24 24 25 25 25 25 25 24 23 22 21 20 19 19 20 19 17 17 20 22 25 27 30 33 36 39 40 40 38
25 25 24 23 24 24 24 23 23 22 23 24 25 26 26 27 26 26 26 27 27 27 27 26 27 27 27 26 24 23 23 23 22 22 22 23 24 24 24 24 24 22 21 20 19 17 16 17 18 18 18 18 19 21 23 25 27 30 32 35 37 36 34
24 24 24 23 24 24 24 23 22 22 23 24 25 26 27 27 27 27 27 28 28 28 27 27 27 27 26 25 24 23 22 22 22 21 21 22 23 24 24 23 22 21 19 18 18 18 18 19 20 20 19 19 19 20 22 24 27 30 31 32 33 33 31
24 23 23 23 23 24 24 23 22 22 23 24 25 26 27 27 28 28 28 28 28 28 27 27 27 26 25 25 23 22 22 22 23 22 22 22 23 24 23 23 21 20 19 19 19 21 22 22 22 22 21 21 21 21 22 23 27 30 30 31 32 32 30
24 24 24 23 23 23 23 23 23 23 24 24 25 26 27 28 28 28 28 29 29 28 27 26 26 25 25 25 23 22 21 22 23 23 23 23 23 23 23 22 21 20 20 21 22 23 24 24 24 23 23 23 22 22 22 22 23 26 28 29 30 29 27
24 24 24 24 23 23 23 24 24 24 24 25 25 26 27 28 28 28 29 29 30 29 27 26 25 24 24 24 23 21 21 22 24 24 23 22 23 23 23 22 21 21 22 23 24 25 26 25 25 24 24 23 22 22 21 20 20 21 24 26 27 27 26
24 24 24 24 24 23 23 24 24 24 24 24 25 25 26 27 28 28 29 29 29 29 27 26 25 24 23 22 21 21 21 23 24 24 22 22 23 23 23 23 22 23 24 25 25 25 25 25 24 23 23 23 23 22 22 22 21 21 21 23 24 25 26
23 24 24 24 24 24 23 23 23 23 23 23 24 24 25 26 27 27 28 29 29 28 27 26 25 23 22 21 21 20 21 23 25 24 23 23 24 23 23 24 24 25 25 25 25 24 24 24 23 23 22 23 23 23 23 24 24 24 23 23 24 24 25
22 22 22 22 23 24 23 22 22 22 22 22 23 23 23 25 25 26 26 27 28 28 26 25 24 23 22 21 20 20 21 24 26 26 25 25 25 25 24 25 25 25 24 24 24 23 23 23 23 23 23 24 24 24 24 25 24 25 25 24 24 24 24
21 21 21 20 20 21 22 23 22 21 21 21 21 22 22 23 23 24 25 26 26 26 25 24 24 23 21 20 20 19 20 23 26 27 26 26 26 25 25 25 25 24 23 23 23 23 23 23 23 23 24 24 24 24 24 24 24 24 23 23 23 23 22
20 20 20 20 19 20 21 22 21 21 21 20 21 21 22 22 22 23 24 24 24 24 23 24 23 21 20 19 19 18 19 22 25 27 27 27 26 25 26 26 25 24 24 23 23 23 23 23 23 24 23 23 23 23 23 23 22 22 22 22 22 22 22
19 19 19 20 20 19 20 21 21 20 20 20 20 20 21 21 22 22 23 23 23 22 22 22 22 20 19 18 18 18 19 22 25 27 27 27 26 26 26 26 25 25 24 24 24 23 23 24 23 23 22 22 22 23 22 22 22 22 22 22 22 21 21
19 20 20 20 20 20 19 20 20 20 19 19 19 20 20 20 21 21 22 21 21 20 20 21 20 19 18 18 18 18 19 23 26 27 27 27 27 27 27 26 26 26 25 24 24 24 24 24 23 23 23 23 22 22 22 22 22 22 22 21 20 20 20
18 19 19 19 19 19 19 19 19 19 19 19 19 19 20 20 20 20 20 20 19 19 19 20 19 18 18 17 17 17 18 21 24 26 27 27 28 27 26 26 25 25 24 24 24 24 24 24 23 23 24 23 22 22 22 22 21 21 20 20 20 20 20
17 17 17 18 19 19 19 19 18 19 19 20 20 20 20 20 19 18 18 17 18 17 17 18 18 18 18 17 17 18 19 20 22 25 26 27 27 27 26 25 25 24 24 24 24 24 24 23 23 23 23 22 22 22 21 21 20 20 19 20 20 20 20
16 17 17 18 18 19 20 20 19 19 20 20 20 20 20 19 19 18 16 15 15 14 14 16 17 18 19 18 18 18 20 20 21 23 25 26 26 26 26 26 26 26 25 25 25 25 24 23 23 22 21 21 21 21 20 19 19 19 19 19 20 20 20
15 16 17 18 17 17 19 20 21 21 21 20 20 19 19 18 18 17 16 14 13 12 12 14 16 18 18 18 17 18 20 20 20 21 22 24 24 24 25 25 26 26 26 26 25 25 24 22 22 21 21 21 21 20 20 19 19 19 19 19 20 20 20
14 14 16 17 18 17 17 18 20 20 20 19 19 19 18 18 17 16 15 13 11 11 12 13 15 16 17 17 17 18 18 19 19 19 20 21 22 23 24 25 26 26 27 26 26 25 23 22 21 21 20 20 20 20 19 19 19 19 19 19 19 19 19
13 13 14 16 17 18 18 18 18 19 18 18 17 17 17 17 16 15 13 11 10 9 10 12 13 15 16 16 16 17 17 17 18 18 18 20 21 23 24 26 27 28 27 26 25 24 23 22 21 21 21 20 20 20 19 19 19 19 19 19 19 18 18
13 13 14 15 16 16 17 17 17 17 16 16 15 14 14 14 14 13 12 9 8 7 9 10 12 13 14 14 15 16 17 17 18 18 19 20 22 23 25 27 28 27 26 25 25 24 23 22 22 22 21 20 20 20 19 19 19 18 18 18 18 18 18
13 13 12 12 13 14 15 15 15 14 14 13 12 11 11 11 11 11 9 8 7 7 8 9 11 13 14 14 15 16 17 18 19 20 21 22 23 24 25 26 26 26 26 25 25 24 24 23 22 22 21 20 20 19 19 18 18 18 18 18 18 18 18
12 13 12 11 12 13 13 13 13 13 12 11 10 10 9 9 8 7 7 6 6 6 6 8 10 12 13 14 14 16 17 17 18 19 20 21 22 23 24 25 25 25 25 25 24 24 23 22 21 21 20 19 19 19 18 18 17 17 18 18 18 18 18
10 11 12 11 11 12 12 12 12 12 12 11 10 9 9 8 7 6 5 4 4 4 5 6 8 9 11 11 12 13 14 15 15 16 17 18 19 20 21 22 23 23 24 23 23 22 21 21 21 20 19 19 18 18 18 18 18 18 18 18 18 19 19
Wind_Direction
272 267 266 266 268 269 270 270 270 271 272 274 275 277 278 279 280 281 282 280 278 275 272 268 265 264 264 264 262 262 264 265 264 262 261 259 257 256 252 249 248 248 249 250 247 245 243 240 238 235 229 223 221 219 216 215 212 211 211 211 211 210 207
279 273 268 266 267 269 271 272 272 272 272 273 275 276 277 278 280 281 280 279 279 278 275 272 268 265 264 263 262 263 264 265 265 263 261 259 258 257 256 254 250 247 246 247 246 242 240 238 237 235 230 224 221 219 216 213 211 210 211 211 212 212 210
286 281 275 270 268 270 272 273 274 274 274 274 274 275 276 277 278 279 280 280 279 278 275 272 269 266 265 263 262 262 264 264 265 264 261 259 258 258 258 256 253 249 247 247 246 243 240 238 237 235 230 224 220 218 217 214 211 210 210 211 211 212 212
293 288 282 275 270 270 272 274 275 275 275 274 273 274 275 276 278 279 280 279 277 275 272 270 269 268 266 265 264 264 265 265 265 265 263 260 259 258 257 256 253 250 248 248 247 244 240 238 238 236 231 223 218 217 216 216 214 212 211 211 211 211 211
301 295 288 280 273 271 272 274 275 275 275 273 273 273 274 276 278 280 280 278 275 272 270 267 267 267 266 266 266 266 267 267 266 265 263 261 260 259 257 255 252 249 248 247 246 245 241 237 236 236 232 226 221 218 216 215 214 214 214 213 213 213 212
304 300 294 285 277 273 272 273 274 274 274 273 272 273 274 277 279 281 280 278 275 272 269 266 265 266 266 266 267 268 268 267 266 264 262 261 260 259 257 254 251 248 246 245 244 244 242 238 236 235 231 228 225 222 219 216 214 214 215 216 216 214 213
303 299 295 288 281 276 274 273 273 274 275 274 274 275 276 277 279 280 279 276 274 272 271 268 266 265 266 267 268 269 269 267 266 263 261 259 257 255 253 252 251 249 247 244 242 241 241 240 237 234 231 230 227 222 221 220 217 214 214 215 216 216 216
300 297 293 288 283 279 277 275 275 276 276 276 276 276 276 277 277 278 278 275 271 270 270 268 266 266 267 268 269 270 269 267 265 262 260 258 255 252 249 248 248 248 246 244 242 240 240 239 237 233 230 228 226 222 220 220 220 219 218 217 217 218 219
299 296 292 288 284 280 278 276 276 276 277 277 276 275 275 275 276 276 276 274 271 269 269 269 268 268 268 268 269 270 270 268 264 261 258 256 253 250 247 245 245 244 244 243 241 240 238 236 235 234 231 229 228 227 224 221 219 219 220 221 221 221 221
302 299 295 290 286 281 278 276 275 275 276 275 274 274 274 275 276 276 276 274 271 271 271 271 271 269 268 268 268 269 270 269 265 261 258 254 250 247 245 243 243 242 243 243 242 241 240 238 237 237 236 235 233 230 227 223 219 218 219 221 222 223 223
307 305 301 296 291 286 281 278 275 273 274 274 274 274 275 276 277 276 276 275 273 273 273 272 270 269 268 267 267 268 268 267 264 260 258 254 249 246 244 243 241 241 242 243 244 243 243 243 243 241 239 235 232 229 226 224 222 221 221 221 223 224 225
312 309 305 300 295 290 285 280 276 273 272 272 273 274 275 278 279 281 281 280 277 275 274 272 270 268 268 268 269 269 267 265 262 259 257 255 251 247 245 243 242 240 240 242 244 245 245 245 244 242 237 233 230 227 225 224 224 224 226 226 227 227 228
313 311 307 302 297 292 286 281 276 271 271 272 273 275 277 280 284 285 285 282 279 276 274 272 272 271 270 270 269 269 266 264 262 259 256 254 251 248 245 244 243 240 238 239 242 247 249 247 243 240 238 236 232 228 226 225 225 227 228 229 230 231 232
310 309 306 302 297 291 284 278 274 271 271 272 273 275 277 280 282 283 282 280 279 277 275 274 274 274 274 273 271 270 267 263 259 257 254 252 249 246 244 242 241 239 237 234 234 237 242 244 243 243 243 242 238 236 236 235 235 235 234 232 231 232 234
305 304 302 298 293 288 282 277 272 270 270 270 272 273 275 277 279 279 279 279 278 278 276 275 275 276 276 276 275 273 270 264 258 254 251 248 245 244 242 240 238 235 233 231 229 230 233 236 240 243 244 243 243 242 242 243 243 242 239 235 233 232 231
300 298 295 291 287 283 279 274 270 268 267 268 270 272 273 276 278 279 280 279 278 277 276 277 278 279 280 279 277 275 271 265 258 250 246 244 242 241 238 236 234 231 228 228 231 234 238 242 244 244 242 239 238 237 236 236 236 235 234 233 229 227 225
296 293 289 285 281 278 275 271 267 264 264 265 267 269 272 275 278 280 280 279 278 277 277 278 280 281 281 280 277 274 269 262 255 246 240 238 238 237 234 232 230 229 230 235 240 243 244 245 244 242 238 234 231 229 227 228 229 227 227 226 223 220 218
292 289 286 282 279 276 272 269 266 263 262 263 265 267 270 274 277 279 280 280 279 280 280 281 281 280 279 278 276 272 265 257 250 242 235 233 234 234 233 232 231 234 240 245 248 248 246 243 240 237 234 231 228 225 222 222 225 225 222 220 220 218 215
290 287 285 283 280 277 273 270 267 265 264 264 265 267 270 273 276 279 280 281 281 282 282 281 279 278 277 276 275 270 262 253 244 236 231 231 233 234 235 236 238 243 248 251 251 249 245 241 238 236 232 229 224 221 217 214 215 219 220 219 217 216 213
290 288 287 285 282 278 274 272 270 268 267 267 268 269 271 274 277 279 281 282 283 283 282 279 278 277 276 275 273 268 260 250 240 231 227 229 233 236 239 242 245 248 251 251 250 247 243 240 238 235 230 226 222 218 213 207 205 209 214 216 216 216 216
292 290 289 286 284 281 277 275 274 272 271 270 271 271 272 273 275 277 280 282 283 283 282 280 278 276 274 273 269 263 256 247 236 226 223 228 234 238 241 244 248 250 251 250 247 244 240 237 235 231 226 223 220 216 211 208 205 205 208 211 214 218 220
297 294 292 291 290 288 284 281 279 277 275 274 273 272 271 271 273 275 277 279 281 282 282 281 278 275 273 270 265 259 252 244 232 222 220 226 232 236 240 243 245 247 247 246 244 241 238 234 231 227 223 220 217 214 211 210 208 209 211 212 215 219 223
303 301 299 297 295 292 290 287 284 282 280 278 276 274 271 270 271 272 274 276 278 280 281 279 277 276 274 270 263 256 248 239 229 220 219 225 230 235 239 242 243 243 242 241 240 237 234 230 227 224 220 217 215 213 212 212 211 212 214 217 220 223 226
306 305 303 301 299 296 295 292 290 288 286 283 281 278 275 273 272 271 273 274 276 278 278 278 277 275 273 269 262 253 244 235 227 221 222 227 230 234 238 241 241 239 237 235 234 231 229 227 224 221 218 216 215 213 213 212 213 215 217 219 222 224 226
310 309 308 307 305 303 301 299 297 295 292 289 285 280 277 276 273 272 271 271 273 274 274 274 275 274 272 269 261 249 237 229 224 222 225 231 234 236 238 239 238 236 233 231 230 228 226 224 221 219 217 216 216 215 215 214 215 217 218 220 222 224 225
318 317 315 314 313 311 309 307 304 302 299 295 291 286 282 279 276 274 272 270 269 269 268 270 272 272 272 269 261 249 235 227 224 224 228 233 237 238 237 236 235 233 230 228 227 226 225 223 220 217 216 216 215 215 215 216 216 218 219 220 222 225 226
322 321 318 316 315 314 313 311 309 307 304 301 297 294 290 287 284 281 277 273 268 265 266 269 271 272 272 269 261 250 240 232 229 228 230 234 237 237 236 234 233 232 229 228 227 225 223 222 220 219 218 217 216 214 215 216 217 219 221 221 222 224 225
325 322 318 316 315 313 312 311 310 308 306 304 302 298 295 293 290 286 282 277 271 268 268 270 271 271 271 268 261 252 243 238 235 233 234 237 237 235 234 232 230 228 226 226 226 226 225 223 221 221 219 218 217 216 216 217 219 220 222 222 224 225 226
327 323 319 317 316 314 313 311 309 307 305 304 302 299 297 294 291 288 285 279 273 270 269 270 271 270 269 269 264 254 247 242 239 237 237 238 238 236 234 233 231 228 226 225 226 227 226 224 222 221 218 217 218 218 218 220 222 223 224 226 228 230 232
331 326 322 320 319 316 314 311 310 309 308 305 301 298 295 293 289 288 285 279 274 271 271 272 272 269 268 269 266 258 251 247 244 243 242 242 241 239 237 235 234 231 229 228 227 226 225 223 222 220 218 218 220 221 221 223 226 227 228 230 232 234 237
339 332 327 324 323 321 318 314 311 311 310 307 303 299 295 293 291 289 285 278 271 269 272 274 273 271 270 269 267 263 257 253 250 250 249 247 245 241 237 235 234 232 230 227 226 224 222 221 220 221 221 222 223 224 224 225 228 230 231 232 234 236 238
347 342 335 332 330 328 326 323 320 318 316 312 309 304 301 299 298 294 286 275 266 267 274 277 276 275 273 271 269 267 262 257 253 251 250 248 245 241 237 235 233 231 229 227 225 223 221 220 221 222 224 225 227 229 229 228 230 233 234 236 237 240 242
352 351 345 339 336 335 334 333 331 328 325 323 320 315 311 308 304 296 286 272 261 265 275 278 279 279 277 275 274 271 265 260 256 252 249 247 245 242 239 236 232 230 228 226 225 223 222 222 223 224 225 228 230 233 234 234 236 238 240 242 244 245 247
354 355 353 346 343 344 343 341 339 338 336 333 329 325 323 318 311 302 294 283 271 266 269 272 273 274 274 273 271 267 262 259 256 253 251 248 245 242 240 237 233 230 226 224 223 223 222 223 224 226 228 230 233 236 239 240 242 244 246 249 251 251 251
358 357 357 356 354 354 351 348 347 348 347 345 341 336 334 330 323 315 311 307 298 286 277 272 270 270 272 273 272 268 264 263 261 259 257 254 250 245 242 238 234 230 228 226 225 224 225 226 228 230 232 233 236 239 242 244 247 249 250 251 252 251 251
3 359 358 359 360 358 355 353 354 357 357 355 352 350 348 347 344 339 334 329 319 305 290 280 277 277 277 278 279 278 275 272 270 267 264 261 256 251 246 241 237 232 230 229 227 227 228 229 231 233 235 238 241 244 246 248 250 251 252 253 253 253 253